Starlink 34166

operational
NORAD ID: 64158 Int'l Des: 2025-112 Owner: SPXS Country: US Constellation: starlink
LEOCIRCULARRETROGRADESSO

Starlink 34166について

説明を読み込み中...

リアルタイム位置

3D地球を読み込み中...

次回通過

高度履歴

Altitude vs Time

uPlot chart will show altitude changes over time

軌道要素

1 64158U 25112N 25340.71304009 .00011915 00000-0 82848-3 0 9993
2 64158 97.6021 29.8025 0001374 86.8123 273.3261 15.05654884 29315
Epoch: Dec 6, 2025 • Age: 35 hours

現在のステータス

高度 569.5 km
速度 7.57 km/s
衛星直下点 -49.68°S, 70.68°E
打ち上げ日 May 27, 2025
運用期間 0.5 years
タイプ internet

技術仕様

分類 Payload
質量 575.00 kg
乾燥質量 530.00 kg
総質量 575.00 kg
長さ 0.30 m
直径 4.10 m
スパン 29.00 m
形状 Box + pan
製造者 SPXS
バスタイプ Starlink V2MO
フェーズステータス In Orbit
所有者/国 SPXS/US

大規模コンステレーション

Loading constellations...